[[{"header":{"parameterUnit":"m.s-1","parameterCategory":2,"la1":30.2992,"la2":30.254,"lo1":-89.0895,"lo2":-89.0443,"dy":0.0025,"dx":0.0025,"nx":19,"ny":19,"refTime":"2026-03-13T21:00:00:Z","depth":"0","parameterNumber":2,"parameterNumberName":"U-component_of_CURRENTS"},"data":[0,0,0,-0.2195,-0.2197,-0.2262,-0.2262,-0.2319,-0.232,0,0,0,0,0,0,0,0,0,0,0,-0.2158,-0.2158,-0.2195,-0.2197,-0.2262,-0.2262,-0.2319,-0.232,0,0,0,0,0,0,0,0,0,0,0,-0.2158,-0.2158,-0.2158,-0.2197,-0.2262,-0.2262,-0.2319,-0.2274,0,0,0,0,0,0,0,0,0,0,-0.2214,-0.2175,-0.2158,-0.2158,-0.2198,-0.2261,-0.2262,-0.2272,-0.2277,-0.2285,0,-0.2292,0,-0.2318,-0.2324,-0.2324,0,0,0,-0.2189,-0.217,-0.2204,-0.2158,-0.2198,-0.2261,-0.223,-0.2275,-0.2281,-0.2291,-0.2293,-0.2296,-0.2319,-0.2324,-0.2324,-0.2418,-0.2418,0,0,-0.2185,-0.2156,-0.22,-0.2207,-0.2211,-0.2228,-0.2232,-0.2279,-0.2272,-0.2293,-0.2298,-0.232,-0.2325,-0.2325,-0.2417,-0.2418,0,0,0,-0.218,-0.2153,-0.2185,-0.2204,-0.2224,-0.223,-0.2235,-0.227,-0.2285,-0.2299,-0.232,-0.2325,-0.2326,-0.2417,-0.2418,-0.2442,0,0,0,-0.2178,-0.2152,-0.2183,-0.2165,-0.2223,-0.2249,-0.2224,-0.2281,-0.2288,-0.232,-0.2325,-0.2326,-0.2416,-0.2417,-0.2439,-0.2443,0,0,0,-0.2156,-0.2149,-0.2159,-0.2163,-0.2199,-0.225,-0.2266,-0.2283,-0.2302,-0.2324,-0.2326,-0.2416,-0.2417,-0.2438,-0.244,-0.2449,0,0,0,-0.2121,-0.2137,-0.2157,-0.2189,-0.2199,-0.2275,-0.2266,-0.2311,-0.2333,-0.2325,-0.2416,-0.2418,-0.2437,-0.2439,-0.2448,-0.2298,-0.2292,0,0,-0.2128,-0.2137,-0.2162,-0.2183,-0.2256,-0.2266,-0.2339,-0.2356,-0.2356,-0.2396,-0.2398,-0.244,-0.244,-0.2449,-0.2376,-0.2368,0,0,0,-0.2158,-0.217,-0.2197,-0.2242,-0.2301,-0.2352,-0.2381,-0.2397,-0.2429,-0.2378,-0.2461,-0.2461,-0.2465,-0.2373,-0.2367,-0.2246,-0.2424,-0.2424,-0.2424,-0.2109,-0.2168,-0.2216,-0.2291,-0.2342,-0.2415,-0.2451,-0.2478,-0.2474,-0.2494,-0.2496,-0.2541,-0.2444,-0.2437,-0.2316,-0.2518,-0.2518,-0.2518,-0.2519,-0.2121,-0.2145,-0.2228,-0.2291,-0.2367,-0.2424,-0.2515,-0.2523,-0.2564,-0.2549,-0.2552,-0.2422,-0.2432,-0.2305,-0.252,-0.252,-0.252,-0.252,-0.252,-0.2074,-0.2094,-0.2144,-0.224,-0.2323,-0.2418,-0.2479,-0.2544,-0.2574,-0.2591,-0.2473,-0.247,-0.2342,-0.2585,-0.2585,-0.2585,-0.2585,-0.2585,-0.2585,-0.1987,-0.2048,-0.2072,-0.2189,-0.2229,-0.2322,-0.245,-0.2483,-0.2495,-0.2485,-0.2484,-0.2334,-0.256,-0.2539,-0.2586,-0.2586,-0.2586,-0.2586,-0.2586,-0.1901,-0.1929,-0.1964,-0.2,-0.2113,-0.2133,-0.2301,-0.2335,-0.2387,-0.2358,-0.2202,-0.2426,-0.2398,-0.2401,-0.2376,-0.2378,-0.2378,-0.2378,-0.2378,-0.1809,-0.1843,-0.1838,-0.1869,-0.1941,-0.2033,-0.1987,-0.2032,-0.2041,-0.1978,-0.2053,-0.1986,-0.1999,-0.1947,-0.196,-0.1925,-0.1814,-0.1813,-0.1813,-0.1728,-0.1754,-0.1705,-0.1771,-0.1842,-0.1879,-0.1765,-0.169,-0.1711,-0.1785,-0.1919,-0.1943,-0.1844,-0.1876,-0.1794,-0.1821,-0.1766,0,0]},{"header":{"parameterUnit":"m.s-1","parameterCategory":2,"la1":30.2992,"la2":30.254,"lo1":-89.0895,"lo2":-89.0443,"dy":0.0025,"dx":0.0025,"nx":19,"ny":19,"refTime":"2026-03-13T21:00:00:Z","depth":"0","parameterNumber":3,"parameterNumberName":"V-component_of_CURRENTS"},"data":[0,0,0,-0.0204,-0.0203,-0.0122,-0.0122,0.0025,0.0026,0,0,0,0,0,0,0,0,0,0,0,-0.0234,-0.0234,-0.0204,-0.0203,-0.0122,-0.0122,0.0025,0.0026,0,0,0,0,0,0,0,0,0,0,0,-0.0234,-0.0234,-0.0233,-0.0203,-0.0122,-0.0122,0.0024,-0.0043,0,0,0,0,0,0,0,0,0,0,-0.0126,-0.0169,-0.0234,-0.0233,-0.0202,-0.0122,-0.0122,-0.0047,-0.0039,-0.0005,0,-0.0005,0,0.0009,0.0035,0.0036,0,0,0,-0.0186,-0.0176,-0.0153,-0.0233,-0.0202,-0.0123,-0.0154,-0.0043,-0.0034,0.0006,-0.0003,0.0003,0.0011,0.0036,0.0037,0.0119,0.0119,0,0,-0.0191,-0.0214,-0.0159,-0.0148,-0.0196,-0.0157,-0.0152,-0.0038,-0.0035,-0.0002,0.0006,0.0014,0.0037,0.0038,0.0119,0.0119,0,0,0,-0.0215,-0.0217,-0.0197,-0.0154,-0.0145,-0.0155,-0.0149,-0.0039,-0.0033,0.0008,0.0015,0.0038,0.004,0.0119,0.0119,0.0018,0,0,0,-0.0217,-0.0232,-0.02,-0.0211,-0.0148,-0.0098,-0.0153,-0.0041,-0.0028,0.0015,0.0038,0.0041,0.0119,0.0119,0.0021,-0.0033,0,0,0,-0.0235,-0.0233,-0.0229,-0.0213,-0.0185,-0.01,-0.0087,-0.0038,-0.0023,0.0036,0.0041,0.0119,0.0119,0.0024,-0.0028,-0.0005,0,0,0,-0.0253,-0.0275,-0.023,-0.0252,-0.0186,-0.0162,-0.0087,-0.0053,-0.0011,0.0039,0.0119,0.0119,0.0025,-0.0024,-0.0002,0.0057,0.0051,0,0,-0.0297,-0.0281,-0.0296,-0.0254,-0.0269,-0.0171,-0.0164,-0.0075,-0.0,0.0089,0.0091,0.002,-0.0027,-0.0004,0.0038,0.0032,0,0,0,-0.032,-0.0336,-0.0331,-0.0327,-0.0283,-0.0246,-0.015,-0.0097,-0.0018,0.0021,0.0042,0.0016,0.0034,0.0075,0.007,0.0276,0.0118,0.0118,0.0118,-0.0404,-0.039,-0.0424,-0.0401,-0.0376,-0.0287,-0.0241,-0.0146,-0.0067,-0.0047,-0.005,-0.0083,-0.0041,-0.0043,0.0167,-0.0025,-0.0025,-0.0025,-0.0026,-0.0498,-0.0527,-0.0503,-0.0531,-0.0475,-0.0447,-0.0325,-0.0258,-0.0163,-0.0113,-0.0089,-0.0015,-0.0054,0.0172,-0.0032,-0.0031,-0.003,-0.0029,-0.0029,-0.0564,-0.0581,-0.059,-0.0628,-0.0623,-0.0547,-0.052,-0.0404,-0.0263,-0.0246,-0.0128,-0.0125,0.0065,-0.0213,-0.0213,-0.0213,-0.0213,-0.0213,-0.0214,-0.063,-0.0644,-0.0704,-0.073,-0.0751,-0.0741,-0.0627,-0.0548,-0.0358,-0.0229,-0.0227,0.0087,-0.0138,-0.0141,-0.0216,-0.0216,-0.0215,-0.0215,-0.0215,-0.0719,-0.0719,-0.0819,-0.0859,-0.0912,-0.0923,-0.0808,-0.0587,-0.0456,-0.034,0.0082,-0.0184,-0.0132,-0.0126,-0.0127,-0.0193,-0.0193,-0.0193,-0.0193,-0.0773,-0.0785,-0.0917,-0.1001,-0.106,-0.1012,-0.0893,-0.0603,-0.0127,0.0141,0.0206,0.0278,0.0268,0.0348,0.0344,0.0355,0.0413,0.0414,0.0415,-0.0832,-0.087,-0.0973,-0.1058,-0.1128,-0.1089,-0.0938,-0.0528,0.017,0.046,0.0479,0.0454,0.058,0.0547,0.0689,0.0666,0.069,0,0]}],[{"header":{"parameterUnit":"m.s-1","parameterCategory":2,"la1":30.2992,"la2":30.254,"lo1":-89.0895,"lo2":-89.0443,"dy":0.0025,"dx":0.0025,"nx":19,"ny":19,"refTime":"2026-03-13T21:00:00:Z","depth":"2","parameterNumber":2,"parameterNumberName":"U-component_of_CURRENTS"},"data":[0,0,0,-0.1914,-0.1915,-0.1978,-0.1978,-0.2032,-0.2032,0,0,0,0,0,0,0,0,0,0,0,-0.1881,-0.1881,-0.1914,-0.1916,-0.1978,-0.1978,-0.2032,-0.2032,0,0,0,0,0,0,0,0,0,0,0,-0.1881,-0.1881,-0.1882,-0.1916,-0.1978,-0.1978,-0.2032,-0.199,0,0,0,0,0,0,0,0,0,0,-0.1932,-0.1899,-0.1881,-0.1882,-0.1916,-0.1978,-0.1978,-0.1988,-0.1992,-0.1998,0,-0.2005,0,-0.2027,-0.2036,-0.2036,0,0,0,-0.191,-0.1895,-0.1923,-0.1882,-0.1917,-0.1978,-0.1948,-0.199,-0.1995,-0.2003,-0.2006,-0.2008,-0.2028,-0.2036,-0.2036,-0.2121,-0.2121,0,0,-0.1907,-0.1883,-0.192,-0.1926,-0.193,-0.1946,-0.195,-0.1994,-0.199,-0.2006,-0.201,-0.2029,-0.2036,-0.2037,-0.212,-0.2121,0,0,0,-0.19,-0.188,-0.1907,-0.1924,-0.1941,-0.1948,-0.1953,-0.1988,-0.2,-0.2011,-0.203,-0.2037,-0.2037,-0.212,-0.2121,-0.2147,0,0,0,-0.1898,-0.1877,-0.1905,-0.189,-0.1941,-0.1968,-0.1945,-0.1996,-0.2003,-0.2029,-0.2037,-0.2038,-0.2119,-0.212,-0.2145,-0.215,0,0,0,-0.1879,-0.1875,-0.1884,-0.1889,-0.1922,-0.1968,-0.1982,-0.1998,-0.2015,-0.2036,-0.2038,-0.2119,-0.212,-0.2143,-0.2148,-0.2155,0,0,0,-0.185,-0.1863,-0.1883,-0.1909,-0.1921,-0.1989,-0.1982,-0.2025,-0.2046,-0.2037,-0.2119,-0.212,-0.2143,-0.2146,-0.2154,-0.1996,-0.199,0,0,-0.1855,-0.1863,-0.1883,-0.1903,-0.1965,-0.198,-0.2045,-0.2065,-0.2067,-0.21,-0.2103,-0.2146,-0.2147,-0.2155,-0.207,-0.2061,0,0,0,-0.1878,-0.1889,-0.1913,-0.1952,-0.2004,-0.2055,-0.2084,-0.2102,-0.2136,-0.2087,-0.2164,-0.2165,-0.2168,-0.2071,-0.2065,-0.2126,-0.2126,-0.2126,-0.2126,-0.1837,-0.1886,-0.1926,-0.1991,-0.2038,-0.211,-0.2148,-0.2178,-0.2175,-0.2198,-0.22,-0.2243,-0.2141,-0.2134,-0.222,-0.222,-0.222,-0.222,-0.222,-0.184,-0.1859,-0.1934,-0.1987,-0.2061,-0.2116,-0.2207,-0.2221,-0.2265,-0.2253,-0.2255,-0.2121,-0.2129,-0.2222,-0.2222,-0.2222,-0.2221,-0.2221,-0.2221,-0.1797,-0.1813,-0.186,-0.1943,-0.2023,-0.2114,-0.2175,-0.2244,-0.2278,-0.2296,-0.2172,-0.2169,-0.224,-0.229,-0.229,-0.229,-0.229,-0.229,-0.229,-0.1718,-0.1774,-0.1794,-0.1898,-0.1937,-0.2024,-0.2153,-0.2185,-0.2195,-0.2186,-0.2185,-0.2266,-0.2264,-0.2244,-0.2291,-0.2291,-0.2291,-0.2291,-0.2291,-0.164,-0.1671,-0.1695,-0.1729,-0.1829,-0.1837,-0.2,-0.2025,-0.2079,-0.2044,-0.2118,-0.2122,-0.2093,-0.2096,-0.2072,-0.2072,-0.2072,-0.2072,-0.2072,-0.1562,-0.1591,-0.1583,-0.1607,-0.1665,-0.1741,-0.1673,-0.169,-0.1791,-0.1796,-0.1808,-0.1748,-0.1762,-0.1713,-0.1724,-0.1692,-0.1594,-0.1593,-0.1592,-0.1492,-0.1509,-0.1463,-0.1516,-0.1572,-0.1586,-0.1441,-0.1301,-0.1366,-0.1575,-0.1747,-0.2036,-0.1978,-0.1989,-0.1938,-0.1947,-0.1905,0,0]},{"header":{"parameterUnit":"m.s-1","parameterCategory":2,"la1":30.2992,"la2":30.254,"lo1":-89.0895,"lo2":-89.0443,"dy":0.0025,"dx":0.0025,"nx":19,"ny":19,"refTime":"2026-03-13T21:00:00:Z","depth":"2","parameterNumber":3,"parameterNumberName":"V-component_of_CURRENTS"},"data":[0,0,0,-0.0263,-0.0262,-0.0198,-0.0197,-0.008,-0.0079,0,0,0,0,0,0,0,0,0,0,0,-0.0286,-0.0286,-0.0263,-0.0262,-0.0198,-0.0197,-0.0081,-0.0079,0,0,0,0,0,0,0,0,0,0,0,-0.0286,-0.0286,-0.0285,-0.0262,-0.0198,-0.0197,-0.0081,-0.0135,0,0,0,0,0,0,0,0,0,0,-0.02,-0.0234,-0.0286,-0.0285,-0.0261,-0.0198,-0.0197,-0.0137,-0.0131,-0.0104,0,-0.0104,0,-0.0094,-0.0072,-0.0072,0,0,0,-0.0248,-0.024,-0.0221,-0.0285,-0.0261,-0.0198,-0.0223,-0.0134,-0.0127,-0.0095,-0.0102,-0.0098,-0.0092,-0.0071,-0.0071,-0.0005,-0.0005,0,0,-0.0252,-0.027,-0.0226,-0.0217,-0.0256,-0.0225,-0.0221,-0.013,-0.0128,-0.0102,-0.0095,-0.009,-0.0071,-0.007,-0.0005,-0.0005,0,0,0,-0.0271,-0.0273,-0.0257,-0.0222,-0.0216,-0.0223,-0.0219,-0.0132,-0.0127,-0.0094,-0.0088,-0.007,-0.0069,-0.0005,-0.0005,-0.0094,0,0,0,-0.0273,-0.0285,-0.0259,-0.0268,-0.0218,-0.0179,-0.0223,-0.0133,-0.0122,-0.0089,-0.007,-0.0068,-0.0005,-0.0005,-0.0091,-0.0142,0,0,0,-0.0286,-0.0286,-0.0282,-0.027,-0.0248,-0.018,-0.0169,-0.013,-0.0119,-0.0072,-0.0067,-0.0005,-0.0005,-0.0089,-0.0137,-0.0125,0,0,0,-0.0301,-0.0322,-0.0283,-0.0305,-0.0249,-0.0234,-0.017,-0.0145,-0.0112,-0.0069,-0.0005,-0.0005,-0.0088,-0.0134,-0.0122,-0.0084,-0.0091,0,0,-0.0341,-0.0327,-0.0342,-0.0306,-0.0324,-0.0241,-0.0239,-0.0167,-0.0102,-0.0029,-0.0028,-0.0092,-0.0136,-0.0124,-0.0098,-0.0105,0,0,0,-0.0363,-0.0378,-0.0375,-0.0374,-0.0341,-0.0312,-0.0233,-0.0187,-0.0121,-0.0085,-0.0072,-0.0097,-0.0086,-0.0057,-0.0063,-0.0006,-0.0006,-0.0006,-0.0006,-0.0436,-0.0426,-0.046,-0.0444,-0.0425,-0.0353,-0.0316,-0.0234,-0.0166,-0.0148,-0.0154,-0.0188,-0.0159,-0.0162,-0.0129,-0.013,-0.013,-0.013,-0.013,-0.0519,-0.0548,-0.0529,-0.0558,-0.0514,-0.0494,-0.0393,-0.0335,-0.0258,-0.0209,-0.0194,-0.0135,-0.0173,-0.0137,-0.0136,-0.0135,-0.0134,-0.0134,-0.0133,-0.0577,-0.0593,-0.0604,-0.0643,-0.0644,-0.0583,-0.0565,-0.0466,-0.0347,-0.0337,-0.0245,-0.0242,-0.0238,-0.031,-0.031,-0.0311,-0.0311,-0.0311,-0.0311,-0.0633,-0.0648,-0.0704,-0.0732,-0.0755,-0.0753,-0.0659,-0.0596,-0.0444,-0.0338,-0.0336,-0.0248,-0.0242,-0.0246,-0.0314,-0.0313,-0.0313,-0.0313,-0.0312,-0.0712,-0.0712,-0.0803,-0.0843,-0.0899,-0.0913,-0.0819,-0.0645,-0.0541,-0.0451,-0.031,-0.0309,-0.0267,-0.026,-0.0263,-0.0331,-0.0331,-0.0331,-0.0331,-0.0759,-0.077,-0.089,-0.0969,-0.1027,-0.099,-0.0898,-0.0673,-0.0441,-0.0309,-0.031,-0.0274,-0.0273,-0.0228,-0.0223,-0.0223,-0.0281,-0.0281,-0.0281,-0.0811,-0.0845,-0.0937,-0.1016,-0.1086,-0.1057,-0.0934,-0.0615,-0.0296,-0.0281,-0.0318,-0.0325,-0.0272,-0.0271,-0.0199,-0.0192,-0.019,0,0]}],[{"header":{"parameterUnit":"m.s-1","parameterCategory":2,"la1":30.2992,"la2":30.254,"lo1":-89.0895,"lo2":-89.0443,"dy":0.0025,"dx":0.0025,"nx":19,"ny":19,"refTime":"2026-03-13T21:00:00:Z","depth":"4","parameterNumber":2,"parameterNumberName":"U-component_of_CURRENTS"},"data":[0,0,0,-0.1411,-0.1414,-0.1539,-0.1539,-0.1631,-0.1632,0,0,0,0,0,0,0,0,0,0,0,-0.1368,-0.1369,-0.1411,-0.1414,-0.1539,-0.1539,-0.1631,-0.1632,0,0,0,0,0,0,0,0,0,0,0,-0.1367,-0.1368,-0.137,-0.1414,-0.1539,-0.1539,-0.1631,-0.1554,0,0,0,0,0,0,0,0,0,0,-0.1441,-0.1411,-0.1368,-0.137,-0.1415,-0.1538,-0.1539,-0.1551,-0.1559,-0.1555,0,-0.158,0,-0.1607,-0.1636,-0.1637,0,0,0,-0.1415,-0.1405,-0.1438,-0.137,-0.1416,-0.1538,-0.1483,-0.1556,-0.1564,-0.1565,-0.1581,-0.1585,-0.1608,-0.1637,-0.1637,-0.1733,-0.1734,0,0,-0.1408,-0.139,-0.1432,-0.1444,-0.1454,-0.1479,-0.1486,-0.1562,-0.1571,-0.1582,-0.1588,-0.161,-0.1637,-0.1638,-0.1733,-0.1733,0,0,0,-0.1387,-0.1385,-0.1418,-0.1439,-0.1467,-0.1482,-0.1491,-0.1568,-0.158,-0.1589,-0.1611,-0.1638,-0.1639,-0.1732,-0.1733,-0.1766,0,0,0,-0.1383,-0.1373,-0.1414,-0.1405,-0.1466,-0.1529,-0.1496,-0.1575,-0.1584,-0.161,-0.1638,-0.1639,-0.1732,-0.1733,-0.1764,-0.1767,0,0,0,-0.1361,-0.1371,-0.1387,-0.1404,-0.1458,-0.1529,-0.1545,-0.1578,-0.1597,-0.1637,-0.1639,-0.1731,-0.1732,-0.1762,-0.1764,-0.1772,0,0,0,-0.1335,-0.1358,-0.1387,-0.1425,-0.1457,-0.1537,-0.1545,-0.1612,-0.1649,-0.1638,-0.1732,-0.1733,-0.1761,-0.1763,-0.1771,-0.1527,0,0,0,-0.1344,-0.1358,-0.1381,-0.141,-0.1479,-0.1519,-0.1599,-0.1652,-0.1665,-0.1701,-0.1704,-0.1764,-0.1764,-0.1772,-0.1606,0,0,0,0,-0.1371,-0.1388,-0.1415,-0.1466,-0.1527,-0.1598,-0.1656,-0.1687,-0.1747,-0.1694,-0.1782,-0.1781,-0.1784,-0.1639,-0.1739,-0.1739,-0.1739,-0.1739,-0.1739,-0.1346,-0.1391,-0.1437,-0.1504,-0.1563,-0.166,-0.1715,-0.1768,-0.1777,-0.1815,-0.1821,-0.1866,-0.1716,-0.1841,-0.1841,-0.1842,-0.1842,-0.1842,-0.1842,-0.1347,-0.1366,-0.1449,-0.151,-0.1599,-0.1675,-0.178,-0.1812,-0.1876,-0.1873,-0.1875,-0.17,-0.1846,-0.1845,-0.1844,-0.1844,-0.1844,-0.1843,-0.1843,-0.1306,-0.1321,-0.1384,-0.1481,-0.1582,-0.1689,-0.1754,-0.1845,-0.1894,-0.1917,-0.175,-0.1884,-0.1865,-0.1919,-0.1919,-0.1919,-0.1919,-0.1919,-0.1919,-0.1224,-0.129,-0.1331,-0.1449,-0.1507,-0.1604,-0.1747,-0.1773,-0.1852,-0.1755,-0.1923,-0.1891,-0.1889,-0.1869,-0.192,-0.192,-0.192,-0.192,-0.192,-0.1146,-0.1194,-0.1235,-0.129,-0.1408,-0.1463,-0.1628,-0.163,-0.1641,-0.1592,-0.1662,-0.1674,-0.1634,-0.1637,-0.1607,-0.1582,-0.1579,-0.1576,0,-0.1077,-0.1109,-0.1139,-0.1181,-0.1225,-0.1363,-0.1319,-0.1383,-0.1451,-0.1404,-0.1642,-0.1722,-0.1729,-0.1685,-0.1683,-0.1647,0,0,0,-0.1018,-0.1039,-0.1023,-0.109,-0.1127,-0.1178,-0.1298,-0.1258,-0.1452,-0.1379,-0.1501,-0.1521,-0.1753,-0.1923,-0.1891,-0.1888,-0.1854,0,0]},{"header":{"parameterUnit":"m.s-1","parameterCategory":2,"la1":30.2992,"la2":30.254,"lo1":-89.0895,"lo2":-89.0443,"dy":0.0025,"dx":0.0025,"nx":19,"ny":19,"refTime":"2026-03-13T21:00:00:Z","depth":"4","parameterNumber":3,"parameterNumberName":"V-component_of_CURRENTS"},"data":[0,0,0,-0.0217,-0.0217,-0.0184,-0.0184,-0.0105,-0.0104,0,0,0,0,0,0,0,0,0,0,0,-0.0229,-0.0229,-0.0217,-0.0217,-0.0184,-0.0184,-0.0105,-0.0104,0,0,0,0,0,0,0,0,0,0,0,-0.0229,-0.0229,-0.0229,-0.0217,-0.0184,-0.0184,-0.0105,-0.0137,0,0,0,0,0,0,0,0,0,0,-0.0172,-0.0195,-0.0229,-0.0229,-0.0216,-0.0184,-0.0184,-0.0138,-0.0135,-0.0113,0,-0.0116,0,-0.0112,-0.0099,-0.0099,0,0,0,-0.0206,-0.0199,-0.0188,-0.0229,-0.0216,-0.0184,-0.0196,-0.0137,-0.0132,-0.0108,-0.0115,-0.0112,-0.0111,-0.0099,-0.0098,-0.0053,-0.0053,0,0,-0.0208,-0.022,-0.0192,-0.0186,-0.0218,-0.0197,-0.0195,-0.0134,-0.0134,-0.0115,-0.0111,-0.0109,-0.0098,-0.0098,-0.0053,-0.0053,0,0,0,-0.022,-0.0222,-0.0213,-0.0189,-0.0188,-0.0196,-0.0194,-0.0137,-0.0134,-0.011,-0.0108,-0.0098,-0.0097,-0.0053,-0.0053,-0.0126,0,0,0,-0.0221,-0.0229,-0.0215,-0.0221,-0.019,-0.0168,-0.0198,-0.0138,-0.0131,-0.0109,-0.0098,-0.0096,-0.0053,-0.0053,-0.0124,-0.0166,0,0,0,-0.0229,-0.023,-0.0229,-0.0222,-0.0212,-0.0169,-0.0163,-0.0137,-0.013,-0.0099,-0.0096,-0.0053,-0.0053,-0.0122,-0.0162,-0.0159,0,0,0,-0.0237,-0.0255,-0.023,-0.0251,-0.0213,-0.021,-0.0163,-0.0152,-0.0131,-0.0097,-0.0053,-0.0053,-0.0121,-0.016,-0.0157,-0.0156,0,0,0,-0.0267,-0.0259,-0.0272,-0.025,-0.0272,-0.0213,-0.0221,-0.0172,-0.0122,-0.0068,-0.0067,-0.0125,-0.0162,-0.0158,-0.0166,0,0,0,0,-0.0287,-0.03,-0.0301,-0.0308,-0.0289,-0.0277,-0.0223,-0.019,-0.0143,-0.0112,-0.0108,-0.0129,-0.0124,-0.0117,-0.0054,-0.0054,-0.0054,-0.0054,-0.0054,-0.0339,-0.0337,-0.0368,-0.0364,-0.0358,-0.0314,-0.0293,-0.0233,-0.018,-0.0168,-0.0176,-0.0208,-0.0203,-0.0154,-0.0154,-0.0155,-0.0155,-0.0155,-0.0155,-0.04,-0.0423,-0.0422,-0.0453,-0.0433,-0.0428,-0.0358,-0.0316,-0.0263,-0.0221,-0.0212,-0.018,-0.0162,-0.0161,-0.016,-0.0159,-0.0158,-0.0158,-0.0158,-0.0437,-0.0451,-0.0472,-0.0517,-0.0535,-0.0502,-0.0496,-0.0426,-0.0337,-0.0332,-0.0282,-0.0245,-0.0252,-0.0313,-0.0313,-0.0314,-0.0314,-0.0314,-0.0314,-0.0466,-0.0488,-0.0543,-0.0584,-0.0616,-0.063,-0.0574,-0.0528,-0.0434,-0.0366,-0.0345,-0.026,-0.0255,-0.0259,-0.0317,-0.0316,-0.0316,-0.0316,-0.0315,-0.051,-0.0521,-0.0604,-0.0651,-0.072,-0.0722,-0.0682,-0.0564,-0.051,-0.0438,-0.0364,-0.036,-0.0328,-0.0321,-0.0325,-0.0405,-0.0405,-0.0406,0,-0.0534,-0.0548,-0.0656,-0.0734,-0.0786,-0.0773,-0.0706,-0.0634,-0.0507,-0.0497,-0.0512,-0.0434,-0.0429,-0.0397,-0.0391,-0.0401,0,0,0,-0.0563,-0.0595,-0.0672,-0.0752,-0.0812,-0.0732,-0.0684,-0.0634,-0.0528,-0.0465,-0.0411,-0.041,-0.0397,-0.0325,-0.0266,-0.026,-0.0263,0,0]}]]